sat.trackr.live / text

‹ back to catalog

QIANFAN-112

NORAD 68639 · 2026-075D

PAYLOAD ACTIVE UNKNOWN

§ Identity

Operator
Country
PRC
Launch date
2026-04-07
Launch site
WSC
Launch vehicle
Mass (kg)
RCS (m²)

External: N2YO · Heavens-Above · Gunter

§ Orbital elements

Epoch: 2026-05-24T18:36:01.781568Z

Period
105.51 min
Inclination
88.9873°
Eccentricity
0.0011473
Mean motion
13.64813415 rev/d
Perigee alt
1,009.8 km
Apogee alt
1,026.7 km
Semi-major
7,396.4 km
B*
-2.4205e+0
RAAN
323.4151°
Arg perigee
75.2855°
Mean anomaly
284.9574°
Rev number
663

§ Raw data

QIANFAN-1121 68639U 26075D   26144.77502062 -.01818796  00000+0 -24205+1 0  99922 68639  88.9873 323.4151 0011473  75.2855 284.9574 13.64813415  6634

JSON: /api/v1/satellites/68639 · /tle

For live sub-satellite position, see the globe view (requires WebGL).

§ Visibility from observer

Set your observer location to see the next 7 days of passes ≥ 10°. The values pass through the URL so the page stays shareable.

No JS? Fill the form by hand. The geolocation button needs JavaScript.